This demonstration page uses our WeatherBlox Daily Observations layout. Learn more.

38.88101, -77.10428

Hourly Observations for February 15, 2018

Temp ( °F °C ) Dew Point ( °F °C ) Humidity (%) Winds ( mph kmh ) Pressure ( in mb ) Visibility ( mi km ) Precip ( " mm )
12:52 am 00:52 Cloudy 50 10 48 8.9 93 93 S 9 15 30.05 1018 10 16.0934 0.01 0.254
1:52 am 01:52 Cloudy 50 10 48 8.9 93 93 S 7 11 30.02 1017 10 16.0934 0 0.0254
2:52 am 02:52 Cloudy 49 9.4 47 8.3 93 93 S 8 13 29.99 1016 10 16.0934 0 0
3:52 am 03:52 Partly Cloudy 49 9.4 47 8.3 93 93 S 7 11 29.98 1015 10 16.0934 0 0.0254
4:52 am 04:52 Cloudy 49 9.4 47 8.3 93 93 S 8 13 29.98 1015 10 16.0934 0 0
5:52 am 05:52 Cloudy 50 10 48 8.9 93 93 S 7 11 29.97 1015 10 16.0934 0 0
6:52 am 06:52 Mostly Cloudy 49 9.4 48 8.9 97 97 S 7 11 29.96 1015 10 16.0934 0 0
7:52 am 07:52 Mostly Cloudy 51 10.6 49 9.4 92 92 S 3 6 29.97 1015 10 16.0934 0 0
8:52 am 08:52 Mostly Cloudy 52 11.1 49 9.4 89 89 S 7 11 29.97 1015 10 16.0934 0 0
9:52 am 09:52 Mostly Cloudy 53 11.7 50 10 89 89 S 7 11 29.96 1015 10 16.0934 0 0
10:52 am 10:52 Mostly Cloudy 55 12.8 51 10.6 87 87 S 8 13 29.96 1015 10 16.0934 0 0
11:52 am 11:52 Mostly Cloudy 57 13.9 52 11.1 83 83 S 10 17 29.93 1013 10 16.0934 0 0
12:52 pm 12:52 Cloudy 58 14.4 52 11.1 81 81 S 12 19 29.88 1012 10 16.0934 0 0
1:52 pm 13:52 Cloudy 63 17.2 54 12.2 73 73 S 12 19 29.84 1010 10 16.0934 0 0
2:52 pm 14:52 Mostly Cloudy 70 21.1 57 13.9 64 64 S 9 15 29.81 1010 10 16.0934 0 0
3:52 pm 15:52 Mostly Cloudy 66 18.9 55 12.8 68 68 S 13 20 29.78 1009 10 16.0934 0 0
4:52 pm 16:52 Mostly Cloudy 73 22.8 58 14.4 59 59 SSW 16 26 29.76 1008 10 16.0934 0 0
5:52 pm 17:52 Mostly Cloudy 70 21.1 58 14.4 66 66 SSW 10 17 29.76 1008 10 16.0934 0 0
6:52 pm 18:52 Mostly Cloudy 67 19.4 56 13.3 68 68 SSW 12 19 29.77 1008 10 16.0934 0 0
7:52 pm 19:52 Partly Cloudy 69 20.6 57 13.9 66 66 SSW 14 22 29.73 1007 10 16.0934 0 0
8:52 pm 20:52 Mostly Clear 69 20.6 57 13.9 66 66 SSW 15 24 29.73 1007 10 16.0934 0 0
9:52 pm 21:52 Mostly Clear 69 20.6 58 14.4 68 68 SSW 18 30 29.71 1006 10 16.0934 0 0
10:52 pm 22:52 Mostly Clear 68 20 58 14.4 70 70 SSW 16 26 29.69 1006 10 16.0934 0 0
11:52 pm 23:52 Partly Cloudy 67 19.4 58 14.4 73 73 SSW 14 22 29.69 1005 10 16.0934 0 0

Powered by AerisWeather